Regional Weather Roundup
Issued by NWS

Home | Current Version | Previous Version | Text Only | Print | Product List | Glossary On
Versions: 1 2 3 4 5 6 7 8 9 10 11 12 13 14 15 16 17 18 19 20 21 22 23 24 25 26 27 28 29 30 31 32 33 34 35 36 37 38 39 40 41 42 43 44 45 46 47 48 49 50
000
ASUS43 KOAX 261810
RWRNE

WEATHER ROUNDUP FOR NEBRASKA
NATIONAL WEATHER SERVICE OMAHA NE
100 PM CDT SAT JUL 26 2014

NOTES: SATELLITE DATA IS BEING USED TO AUGMENT CLOUD COVER ABOVE
       12000 FEET.
       "FAIR" INDICATES FEW OR NO CLOUDS BELOW 12,000 FEET WITH NO
       SIGNIFICANT WEATHER AND/OR OBSTRUCTIONS TO VISIBILITY.

  * THESE STATIONS DO NOT REPORT WEATHER SUCH AS RAIN...SNOW OR FOG.

NEZ001>004-019>022-054>056-261900-
NEBRASKA PANHANDLE

CITY           SKY/WX    TMP DP  RH WIND       PRES   REMARKS
SCOTTSBLUFF    SUNNY     85  53  33 NW5       30.10S
6HR MIN TEMP:  63; 6HR MAX TEMP:  85;

ALLIANCE       SUNNY     85  49  28 N17       30.08S
6HR MIN TEMP:  56; 6HR MAX TEMP:  85;

CHADRON        SUNNY     83  42  23 NE14      30.08S
6HR MIN TEMP:  58; 6HR MAX TEMP:  84;

KIMBALL        CLOUDY    80  43  27 N9G17     30.15S
SIDNEY         PTSUNNY   86  50  28 N15       30.12R
6HR MIN TEMP:  67; 6HR MAX TEMP:  87;

$$

NEZ057>060-069>072-079>082-261900-
SOUTHWEST NEBRASKA

CITY           SKY/WX    TMP DP  RH WIND       PRES   REMARKS
NORTH PLATTE   SUNNY     89  59  36 N18G24    29.94R
6HR MIN TEMP:  65; 6HR MAX TEMP:  90;

IMPERIAL       SUNNY     90  57  32 NW16      30.00R
6HR MIN TEMP:  67; 6HR MAX TEMP:  90;

LEXINGTON      SUNNY     90  71  53 NW14      29.90R HX  96
MCCOOK         SUNNY     93  60  33 NW12      29.93S HX  93
6HR MIN TEMP:  67; 6HR MAX TEMP:  93;

OGALLALA       SUNNY     89  55  31 N16       30.00R
$$

NEZ005>010-023>029-035>040-094-261900-
NORTH CENTRAL NEBRASKA

CITY           SKY/WX    TMP DP  RH WIND       PRES   REMARKS
VALENTINE      CLOUDY    73  65  75 NE15      30.02R
6HR MIN TEMP:  69; 6HR MAX TEMP:  79;

AINSWORTH      CLOUDY    70  66  88 N9G16     29.99S
BROKEN BOW     SUNNY     88  67  49 N18       29.92R HX  91
6HR MIN TEMP:  65; 6HR MAX TEMP:  90;

O`NEILL        CLOUDY    71  63  76 NE17G26   29.95R
ORD            PTSUNNY   85  75  72 S8        29.86S HX  93
6HR MIN TEMP:  75; 6HR MAX TEMP:  86;

THEDFORD       CLOUDY    78  67  68 N20G26    30.02R
$$

NEZ041-046>049-061>064-073>077-083>087-261900-
SOUTH CENTRAL NEBRASKA

CITY           SKY/WX    TMP DP  RH WIND       PRES   REMARKS
GRAND ISLAND   PTSUNNY   86  74  67 SW10      29.85F HX  94
6HR MIN TEMP:  74; 6HR MAX TEMP:  86;

AURORA         MOSUNNY   86  78  76 SW6       29.84F HX  99
HASTINGS       MOSUNNY   87  72  60 VRB5      29.86S HX  93
6HR MIN TEMP:  73; 6HR MAX TEMP:  87;

HEBRON         SUNNY     92  71  50 W5        29.81F HX  99
HOLDREGE       SUNNY     90  70  52 W10       29.89R HX  95
KEARNEY *      MOSUNNY   90  73  58 S8        29.88S HX  98
YORK           PTSUNNY   86  77  74 SW5       29.83F HX  97
$$

NEZ011>018-030>034-042>045-261900-
NORTHEAST NEBRASKA

CITY           SKY/WX    TMP DP  RH WIND       PRES   REMARKS
NORFOLK        CLOUDY    82  69  64 E10       29.88R
6HR MIN TEMP:  74; 6HR MAX TEMP:  86;

ALBION         CLOUDY    83  71  68 E5        29.90R
BLAIR          PTSUNNY   84  73  68 E8        29.82F HX  90
COLUMBUS *     PTSUNNY   88  73  62 SE6       29.85R HX  96
FREMONT        CLOUDY    86  74  67 SE8       29.83F HX  94
WAYNE          CLOUDY    80  73  79 NE12      29.91R THUNDER
$$

NEZ050>053-065>068-078-088>093-261900-
SOUTHEAST NEBRASKA

CITY           SKY/WX    TMP DP  RH WIND       PRES   REMARKS
LINCOLN        MOSUNNY   90  75  61 E8        29.80F HX 100
6HR MIN TEMP:  75; 6HR MAX TEMP:  90;

OMAHA EPPLEY   MOSUNNY   87  72  60 E14       29.79F HX  93
6HR MIN TEMP:  71; 6HR MAX TEMP:  87;

BEATRICE       SUNNY     89  74  59 S3        29.80F HX  98
NEBRASKA CITY  MOSUNNY   84  76  77 E7        29.80F HX  93
PLATTSMOUTH    MOSUNNY   85  74  70 E8        29.79F HX  93
$$

NEZ044-045-051>053-067-261900-
OMAHA AREA

CITY           SKY/WX    TMP DP  RH WIND       PRES   REMARKS
OMAHA EPPLEY   MOSUNNY   87  72  60 E14       29.79F HX  93
6HR MIN TEMP:  71; 6HR MAX TEMP:  87;

BLAIR          PTSUNNY   84  73  68 E8        29.82F HX  90
FREMONT        CLOUDY    86  74  67 SE8       29.83F HX  94
MILLARD        PTSUNNY   85  75  73 E6        29.79F HX  93
OFFUTT AFB     MOSUNNY   85  78  78 E13       29.79F HX  97
PLATTSMOUTH    MOSUNNY   85  74  70 E8        29.79F HX  93
WAHOO          CLOUDY    85  74  68 E6        29.81F HX  92
$$


USA.gov is the U.S. government's official web portal to all federal, state and local government web resources and services.